Tracking 30922 objects as of 2-Jul-2025
HD Live streaming from Space Station
objects crossing your sky now

NOAA 17 DEB

Track NOAA 17 DEB now!
10-day predictions


NORAD ID: 48166
Int'l Code: 2002-032G
Perigee: 701.9 km
Apogee: 721.3 km
Inclination: 98.8 °
Period: 98.9 minutes
Semi major axis: 7082 km
RCS: Unknown
Launch date: June 24, 2002
Source: United States (US)
Launch site: AIR FORCE WESTERN TEST RANGE (AFWTR)

Note: This is SATELLITE DEBRIS
Your satellite tracking list
Your tracking list is empty




NASA's NSSDC Master Catalog

Two Line Element Set (TLE):
1 48166U 02032G   25182.88458632  .00007641  00000-0  17253-2 0  9992
2 48166  98.7820 170.4150 0013638 152.4272 207.7650 14.56512144225394
Source of the keplerian elements: AFSPC